STARLINK-34312, 64711

Orbit data source: Space-Track

STARLINK-34312, 64711 is a payload satellite owned by SpaceX/Seattle (US) in LEO that was launched on Sat, 28 Jun 2025 UTC via an FALCON 9 launch vehicle from the Air Force Western Test Range (AFWTR). Payload-class satellites include a variety of spacecraft equipped with specific instruments for various scientific and technological missions. These include communications satellites like Starlink; space stations such as the ISS; scientific satellites like the Hubble; Earth observation satellites from companies like Planet Labs, Umbra, and HawkEye 360; GPS; miniature CubeSats for education and research; and military/defense satellites.

Loading next visibility...
Identifier
64711, 2025-142R
Orbit
LEO
Country
Flag of USUS
Related business
Manufacturer
SpaceX/Seattle
Mission
Operational Commercial Communications
Bus & Motor
STARLINK V2MO, Unknown motor
Mass
575 kg wet, ~530 kg dry
Launch date (UTC)
2025-06-28 (11 months ago)
Launch vehicle
FALCON 9
Launch site
Air Force Western Test Range (AFWTR)
Object type
Payload
Rocket body
Debris
Shape & HBR
Box + 2 Pan, 17.7 m
Radar Cross Section
36.964 m², Large (>1 m²)

Expand to show TLE details & history
Last TLE update: 10 hours ago

TLE from 10 hours ago
0 STARLINK-34312
1 64711U 25142R   26145.34645340  .00003134  00000-0  27028-3 0  9993
2 64711  69.9999 121.1540 0003968 261.7696  98.3013 14.98336433 51137
Epoch: 2026-05-25T08:18Z
TLE epoch observation values (Epoch: 2026-05-25T08:18:53.573Z)
Latitude
-0.00005°
Longitude
113.4952°
Altitude
574.859 km
Speed
7.573 km/s
True Right ascension
08h 04m 36s
True Declination
0° 00' 00"
Sunlit
Object was in daylight at epoch
Visualization orbit readout
Latitude
Unknown
Longitude
Unknown
Altitude
Unknown
Speed
Unknown
Apparent Right ascension
Unknown
Apparent Declination
Unknown
Sunlit
N/A
Visualization observer readout
Local Sidereal Time
03:11:17
Azimuth
Unknown
Elevation
Unknown
Doppler factor
Unknown
Orbital elements
Apogee altitude
572.741 km
Perigee altitude
567.227 km
Semi-major axis
6,948.121 km
Eccentricity
0.0004
Inclination
69.9999°
RAAN
121.154°
Arg. of periapsis
261.7696°
True anomaly
98.34629°
Mean anomaly
98.3013°
Eccentric anomaly
98.3238°
Mean motion
3.7475 °/min
Orbital period
96.06 mins
BSTAR
0.00027028
Loading maneuver chart data...
Computing Atmospheric mass density...
Loading historical data...
Loading historical data...
Loading historical data...
Loading historical data...
Loading historical data...
Loading historical data...
Loading historical data...

Documentation

Showing up to 5 results
|